SCP
1 1 2 2 2 2 1 2 2 2 2 1 1 1 1 1 1 1 1 1 1 1 1 1 1 1 1 1 1 1 1 1 1 1 1 1 0 0 0 0 0 0 0
1 1 2 3 2 2 1 1 2 2 2 2 1 1 1 1 1 1 1 1 1 1 1 1 1 1 1 1 1 1 1 1 1 1 1 1 0 0 0 0 0 0 0
1 1 2 3 3 2 1 1 1 2 2 2 2 2 1 2 2 2 1 1 1 1 1 1 1 1 1 1 1 1 1 1 1 1 1 0 0 0 1 0 0 0 0
1 1 1 2 2 2 2 2 2 2 2 2 2 2 2 2 2 2 2 2 2 2 1 1 1 1 1 1 1 1 1 1 1 1 0 0 0 1 1 1 0 0 0
1 1 1 2 2 2 2 2 2 2 2 2 2 2 2 2 2 2 2 2 2 2 1 1 1 2 2 1 1 1 1 1 1 1 0 0 0 1 1 1 1 0 0
2 1 1 2 2 1 1 2 2 2 2 2 2 2 2 3 3 3 2 2 2 2 2 2 2 2 2 1 1 2 2 2 1 1 0 0 0 1 1 1 1 1 0
2 2 2 2 2 1 1 1 1 1 2 2 2 2 3 3 3 3 3 2 2 2 2 2 2 2 1 1 1 1 2 2 1 1 0 0 1 2 2 1 1 1 0
2 2 2 2 2 1 1 1 1 1 1 2 2 3 3 3 3 3 3 2 2 2 2 2 2 2 1 1 1 1 1 1 1 1 0 0 1 2 2 2 1 1 1
2 2 2 2 2 1 1 1 1 1 1 1 2 3 3 3 3 3 3 3 2 2 2 2 2 2 2 1 1 1 1 1 1 1 0 1 1 2 2 2 1 1 1
2 2 2 1 1 1 1 1 1 1 1 1 1 2 3 3 3 3 2 2 2 2 2 2 2 2 2 1 1 1 1 1 1 1 1 1 1 2 2 2 1 1 1
2 2 1 1 1 1 1 1 1 1 1 1 1 2 3 3 2 2 2 2 2 2 2 2 2 2 2 1 1 1 1 1 1 1 1 1 1 2 2 2 1 1 1
2 2 1 1 1 1 1 1 2 2 1 1 1 2 2 2 2 1 1 2 2 2 2 2 2 2 1 1 1 1 1 1 1 1 1 1 2 2 2 2 1 1 1
1 1 1 1 1 1 1 1 2 2 2 2 2 2 2 2 2 1 1 2 2 2 2 2 2 1 1 1 1 1 1 1 1 1 1 1 2 2 2 2 1 1 1
1 1 1 1 1 2 1 1 1 2 2 2 2 2 2 2 2 1 1 2 2 2 2 2 1 1 1 1 1 1 1 1 1 1 1 1 2 2 2 2 2 1 1
0 0 0 1 1 1 1 1 1 2 2 3 2 2 2 2 2 1 1 2 2 2 2 1 1 1 1 1 1 1 1 1 1 1 1 1 2 2 2 2 2 2 1
0 0 0 0 1 1 1 0 1 1 2 2 2 2 2 2 2 1 1 1 2 2 2 1 1 1 1 2 2 2 1 1 1 1 1 1 1 2 2 2 2 2 2
0 0 0 0 0 1 0 0 0 1 1 1 1 2 2 2 2 2 1 1 2 2 1 1 1 1 1 2 2 2 2 2 1 1 1 1 1 1 1 2 2 2 2
0 0 0 0 0 0 0 0 0 1 1 0 1 1 2 2 2 2 1 1 1 2 1 1 1 0 1 1 2 2 2 2 2 1 1 1 1 0 1 1 2 2 2
0 0 0 0 0 0 0 0 0 1 0 0 1 1 2 2 2 2 2 1 1 1 1 1 1 0 0 1 2 2 2 2 2 2 1 1 1 0 0 1 1 2 2
0 0 0 0 0 0 0 0 1 1 0 0 1 1 1 2 2 2 2 1 1 1 1 1 1 0 0 1 1 1 2 2 2 1 1 1 0 0 0 0 1 1 1
0 0 0 0 0 0 0 0 0 0 0 1 1 1 1 1 2 2 1 1 0 1 1 1 1 0 0 1 1 1 1 1 1 1 1 0 0 1 0 0 0 1 1
0 0 0 0 0 0 0 0 0 0 0 0 0 0 1 1 1 2 1 1 0 0 1 1 1 1 0 0 1 1 1 1 1 1 0 0 0 1 1 1 0 1 1
0 0 0 0 0 0 0 0 0 0 0 0 0 0 0 1 1 1 1 0 0 0 1 1 1 1 0 0 1 1 1 1 0 0 0 0 0 0 1 1 1 1 1
0 0 0 0 0 0 0 0 0 0 0 0 0 0 0 1 1 1 1 0 0 0 0 1 1 1 0 0 1 1 1 1 0 0 0 0 0 0 1 1 1 1 1
0 0 0 0 0 0 0 0 0 0 0 0 0 0 0 1 1 1 1 1 0 0 0 1 1 1 0 0 0 1 1 1 1 0 0 0 0 0 0 1 1 1 1
0 0 0 0 0 0 0 0 0 0 0 0 0 0 0 0 1 1 1 1 0 0 0 1 1 1 1 0 0 0 1 1 1 0 0 0 0 0 0 0 1 1 1
Wind_Speed
4 6 11 11 11 11 10 9 9 8 7 6 4 3 2 2 3 3 3 4 4 5 6 6 7 7 7 7 7 8 8 9 10 10 9 9 9 9 9 8 7 6 12
3 7 11 11 11 11 10 10 9 8 7 6 5 3 2 2 2 3 3 3 4 5 5 6 6 7 7 7 8 8 8 9 9 9 9 8 8 9 9 8 8 7 12
5 7 9 12 11 11 10 10 9 8 7 6 5 4 2 1 1 2 2 3 3 4 5 5 6 6 7 8 8 9 9 9 9 8 7 4 5 9 9 8 9 11 12
5 7 9 11 11 11 10 10 9 9 8 6 5 4 3 2 0 1 2 2 3 3 4 4 5 6 6 8 8 9 9 9 9 7 4 3 5 9 10 9 10 10 11
5 7 8 11 11 11 10 9 9 8 7 7 6 4 3 2 1 0 1 2 2 2 3 4 4 6 6 7 8 9 9 9 8 6 3 3 4 10 10 10 10 10 10
5 6 6 9 10 10 10 10 9 8 7 6 6 5 3 3 2 1 0 1 2 2 3 4 4 5 6 7 8 9 9 8 6 4 3 3 4 10 11 10 10 10 10
4 4 5 8 8 9 9 10 9 8 7 7 6 5 4 3 3 2 1 1 2 3 3 3 4 5 6 8 9 9 9 8 5 3 3 3 5 12 11 11 10 10 11
4 4 4 6 7 7 8 8 9 8 7 7 6 6 5 4 3 3 2 2 2 3 3 4 4 5 6 7 9 9 8 7 6 5 3 3 8 12 11 11 10 10 10
5 4 3 3 4 6 7 7 8 8 7 7 6 6 5 5 4 4 3 2 3 3 3 4 5 5 6 8 8 9 7 7 4 3 5 4 9 12 12 11 10 11 11
3 3 3 4 4 3 3 6 7 8 8 7 6 6 6 5 5 4 3 3 3 4 4 5 5 6 7 8 9 8 8 6 4 4 3 5 11 12 12 12 11 12 11
3 3 3 4 4 4 4 6 5 6 7 7 5 5 4 2 2 2 3 3 4 4 5 5 6 7 6 7 9 9 7 4 4 4 4 8 13 13 13 13 12 12 11
3 4 4 3 3 3 4 3 3 3 4 4 3 3 2 2 2 3 3 4 5 5 5 5 5 6 5 4 6 7 4 5 4 4 5 12 14 14 14 14 13 12 12
3 3 3 3 2 2 2 2 2 2 2 3 4 4 3 2 1 1 1 1 2 3 3 3 4 3 3 3 4 5 5 5 4 4 6 13 15 16 15 15 14 13 13
3 3 3 2 2 2 2 2 2 2 2 2 3 3 2 1 1 1 1 2 2 2 2 2 3 4 4 4 5 6 6 4 4 3 6 13 15 16 16 16 15 14 14
2 2 3 2 1 1 1 2 2 2 2 2 2 3 2 1 1 2 1 2 2 2 2 2 3 4 4 4 5 6 6 5 5 4 4 11 13 15 17 17 17 16 15
2 2 2 3 2 1 1 2 2 2 2 2 2 3 3 2 2 2 2 2 2 2 2 3 3 3 4 4 5 5 6 5 5 5 5 7 12 14 17 17 17 17 16
2 2 2 3 3 1 1 2 2 2 2 2 2 3 3 2 2 2 2 2 2 2 3 3 3 3 3 3 4 5 4 5 5 5 6 5 7 11 14 17 17 17 17
2 2 3 3 3 3 2 3 2 2 2 2 2 3 4 3 3 2 2 2 3 2 2 3 2 2 3 3 3 4 3 4 5 5 5 6 5 6 10 15 16 17 17
2 2 3 3 4 3 4 3 3 3 3 3 3 3 4 4 3 2 2 2 2 2 2 3 3 3 3 3 3 3 3 3 4 5 5 6 6 6 6 10 14 15 16
2 3 3 3 4 3 3 3 3 3 3 3 3 3 4 4 3 3 3 3 3 2 3 3 3 3 3 3 3 3 3 3 3 4 5 5 6 7 7 7 8 9 14
3 3 3 4 4 3 2 3 3 3 3 3 3 4 4 4 4 3 3 3 3 3 4 4 3 4 3 2 2 2 2 3 4 4 5 5 6 7 8 8 7 6 7
3 3 4 4 4 3 3 3 3 3 3 4 4 4 5 5 5 5 4 4 4 3 4 4 4 3 3 3 3 2 1 2 3 4 4 5 6 6 7 9 8 8 6
3 3 4 4 4 4 4 3 3 3 3 3 4 4 5 6 5 6 6 5 5 5 4 5 5 5 4 4 4 4 3 3 1 2 4 5 5 5 6 6 8 8 8
3 3 4 5 5 5 4 4 5 5 5 5 5 4 5 6 7 7 7 6 6 5 6 6 6 5 5 5 4 4 3 3 3 2 3 4 5 6 6 6 7 8 8
3 3 4 5 5 5 4 4 5 5 5 5 5 6 6 6 7 7 7 6 7 6 7 7 6 6 5 6 5 4 4 3 3 4 4 4 3 4 5 6 6 6 8
3 4 4 5 5 5 5 5 6 7 7 7 7 7 6 5 6 7 8 7 7 7 7 8 8 8 7 7 6 5 5 5 5 4 5 6 5 4 4 4 5 6 6
Wind_Direction
28 60 51 33 30 30 32 34 38 40 43 44 53 71 100 128 140 142 142 143 143 148 154 157 155 152 148 142 132 125 120 117 114 110 109 110 107 105 106 105 100 97 100
41 60 55 36 33 31 31 30 31 36 39 38 41 47 75 116 139 150 152 153 158 163 166 164 165 163 155 152 145 139 135 132 126 121 118 117 115 112 107 100 100 105 105
51 56 53 35 30 31 30 28 27 30 33 34 35 36 35 72 140 153 160 165 165 163 163 169 170 168 163 160 155 152 149 148 144 139 134 132 127 122 115 107 104 108 106
56 61 52 36 30 27 27 26 24 25 25 23 23 24 25 26 180 179 171 175 178 172 168 166 169 163 166 164 162 162 162 161 158 156 154 155 142 132 127 120 118 114 110
58 69 58 42 32 27 23 23 21 19 18 14 10 7 6 5 357 298 205 185 176 179 181 171 164 162 159 164 165 169 171 170 167 166 157 144 132 138 137 132 129 121 118
52 67 64 48 36 28 23 18 16 11 7 3 2 351 343 340 335 308 246 193 185 187 192 187 177 173 170 168 167 176 181 181 174 169 171 151 130 142 143 141 136 132 127
43 58 63 51 40 30 23 17 9 4 359 353 351 339 324 314 313 310 266 223 207 202 196 193 185 183 176 177 179 181 187 187 182 171 173 149 141 149 150 148 144 140 135
35 45 58 47 37 27 20 14 8 358 350 345 343 334 320 308 293 283 261 241 226 215 203 196 190 189 185 187 191 192 194 193 188 181 170 151 148 153 156 154 150 148 143
24 26 33 38 32 22 15 8 4 355 342 334 331 327 318 308 290 269 258 244 228 224 215 207 198 194 195 194 197 202 203 201 201 183 173 159 158 162 162 159 157 155 150
24 17 20 24 24 15 3 1 360 348 340 328 322 318 312 299 285 269 251 244 236 230 223 213 206 202 200 201 202 205 208 204 206 192 174 167 167 171 169 165 162 161 156
19 23 29 24 20 5 349 358 349 343 341 334 320 323 319 293 269 256 243 252 244 239 229 219 213 208 202 200 202 206 205 207 192 192 179 172 174 180 178 173 169 167 163
8 14 23 17 13 5 351 353 337 344 339 334 327 323 305 303 296 297 266 254 245 241 233 223 220 210 200 195 201 203 207 205 192 190 184 179 182 184 184 180 176 173 170
6 11 13 2 2 358 345 340 334 335 332 333 331 319 312 313 312 312 271 246 233 232 213 214 209 210 208 197 196 204 209 201 196 188 185 183 186 188 189 184 180 177 175
6 359 351 356 345 341 341 325 317 320 320 319 317 307 305 301 297 281 273 258 225 221 214 208 212 217 215 208 206 209 211 205 197 181 185 184 188 192 193 189 184 181 180
351 345 338 333 313 309 328 309 316 298 298 302 305 302 298 288 271 262 258 258 252 231 212 219 224 216 211 209 216 216 211 207 201 187 183 187 190 195 196 194 190 187 186
326 323 327 327 298 278 296 293 283 277 284 293 293 291 285 264 252 262 258 257 250 237 228 228 235 221 212 209 218 220 214 205 203 191 181 188 193 197 200 200 197 193 192
309 316 317 315 302 271 276 279 280 267 274 276 281 285 275 258 249 258 259 259 249 239 237 240 239 233 222 217 221 225 218 210 200 193 187 187 193 200 203 202 200 198 197
310 310 307 308 313 285 265 265 265 260 266 268 270 276 270 256 247 250 245 255 257 244 235 238 228 229 226 218 218 225 226 218 205 197 190 189 191 196 204 204 203 202 201
296 297 298 296 294 284 268 260 260 257 257 258 265 263 262 252 245 247 243 246 255 245 237 244 232 222 227 226 220 223 222 222 213 205 197 194 194 191 194 200 203 204 203
279 283 281 279 276 277 277 268 268 263 260 255 255 256 256 252 245 250 249 242 244 244 243 235 235 232 227 220 232 235 228 226 222 211 207 200 195 194 195 196 198 205 204
264 276 286 291 281 268 273 267 267 264 262 266 257 259 262 254 246 243 253 242 238 237 239 239 236 229 226 212 202 230 253 228 219 214 209 201 199 198 196 195 192 193 200
264 280 286 287 284 269 262 262 253 261 260 257 254 256 254 253 246 252 240 236 234 238 241 237 237 234 227 201 189 183 232 257 237 223 210 207 204 199 200 197 192 190 188
276 271 285 286 284 269 267 274 274 275 278 272 264 260 255 254 246 245 242 236 231 228 234 234 225 233 226 216 200 190 184 209 237 241 223 214 202 202 203 196 192 190 189
273 269 274 282 278 271 270 270 269 271 270 268 263 258 259 255 246 240 238 235 229 226 227 232 231 219 220 218 219 227 223 190 189 228 237 222 209 208 209 199 192 191 189
273 264 266 270 272 270 266 263 265 270 270 271 270 267 268 260 246 239 234 233 229 225 223 225 228 220 218 218 218 217 226 217 205 198 222 222 228 213 208 204 196 193 190
283 276 265 265 271 273 269 263 259 265 271 274 273 268 264 258 248 238 233 231 229 225 223 224 223 223 222 221 221 219 210 204 202 202 208 209 223 230 215 209 201 195 190